SCP
0 0 0 0 0 0 0 0 0 0 0 0 0 0 0 0 0 0 0 0 0 0 0 0 0 0 0 0 0 0 0 0 0 0 0 0 0 0 0 0 0 0 0 0 0
0 0 0 0 0 0 0 0 0 0 0 0 0 0 0 0 0 0 0 0 0 0 0 0 0 0 0 0 0 0 0 0 0 0 0 0 0 0 0 0 0 0 0 0 0
0 0 0 0 0 0 0 0 -0 -0 0 0 0 0 0 0 0 0 0 0 0 0 0 0 0 0 0 0 0 0 0 0 0 0 0 0 0 0 0 0 0 0 0 0 0
0 0 0 0 0 0 0 -0 -0 0 0 0 0 0 0 0 0 0 0 0 0 0 0 0 0 0 0 0 0 0 0 0 0 0 0 0 0 0 0 0 0 0 0 0 0
0 0 0 0 0 0 -0 -0 -0 0 0 0 0 0 0 0 0 0 0 0 0 0 0 0 0 0 0 0 0 0 0 0 0 0 0 0 0 0 0 0 0 0 0 0 0
0 0 0 0 0 0 -0 -0 0 0 0 0 0 0 0 0 0 0 0 0 0 0 0 0 0 0 0 0 0 0 0 0 0 0 0 0 0 0 0 0 0 0 0 0 0
0 0 0 0 0 0 -0 -0 -0 0 0 0 0 0 0 0 0 0 0 0 0 0 0 0 0 0 0 0 0 0 0 0 0 0 0 0 0 0 0 0 0 0 0 0 0
0 0 0 0 0 0 0 -0 -0 0 0 0 0 0 0 0 0 0 0 0 0 0 0 0 0 0 0 0 0 0 0 0 0 0 0 0 0 0 0 0 0 0 0 0 0
0 0 0 0 0 0 0 0 -0 0 0 0 0 0 0 0 0 0 0 0 0 0 0 0 0 0 0 0 0 0 0 0 0 0 0 0 0 0 -0 0 0 0 0 0 0
0 0 0 0 0 0 0 0 0 0 0 0 0 0 0 0 0 0 0 0 0 0 0 0 0 0 0 0 0 0 0 0 0 0 0 0 0 0 0 0 0 0 0 0 0
0 0 0 0 0 0 0 0 0 0 0 0 0 0 0 0 0 0 0 0 0 0 0 0 0 0 0 0 0 0 0 0 0 0 0 0 0 0 0 0 0 0 0 0 0
0 0 0 0 0 0 0 0 0 0 0 0 0 0 0 0 0 0 0 0 0 0 0 0 0 0 0 0 0 0 0 0 0 0 0 0 0 0 0 0 0 0 0 0 0
0 0 0 0 0 0 0 0 0 0 0 0 0 0 0 0 0 0 0 0 0 0 0 0 0 0 0 0 0 0 0 0 0 0 0 0 -0 -0 0 0 0 0 0 0 0
0 0 0 0 0 0 0 0 0 0 0 0 0 0 0 0 0 0 0 0 0 0 0 0 0 0 0 0 0 0 0 0 0 0 0 0 0 0 0 0 0 0 0 0 0
0 0 0 0 0 0 0 0 0 0 0 0 0 0 0 0 0 0 0 0 0 0 0 0 0 0 0 0 0 0 0 0 0 0 0 0 0 0 0 0 0 0 0 0 0
0 0 0 0 0 0 0 0 0 0 0 0 0 0 0 0 0 0 0 0 0 0 0 0 0 0 0 0 0 0 0 0 0 0 0 0 0 0 0 0 0 0 0 0 0
0 0 0 0 0 0 0 0 0 0 0 0 0 0 0 0 0 0 0 0 0 0 0 0 0 0 0 0 0 0 0 0 0 0 0 0 0 0 0 0 0 0 0 0 0
0 0 0 0 0 0 0 0 0 0 0 0 0 0 0 0 0 0 0 0 0 0 0 0 0 0 0 0 0 0 0 0 0 0 0 0 0 0 0 0 0 -0 0 0 0
0 0 0 0 0 0 0 0 0 0 0 0 0 0 0 0 0 0 0 0 0 0 0 0 0 0 0 0 0 0 0 0 0 0 0 0 0 0 0 0 0 0 0 0 0
0 0 0 0 0 0 0 0 0 0 0 0 0 0 0 0 0 0 0 0 0 0 0 0 0 0 0 0 0 0 0 0 0 0 0 0 0 0 0 -0 0 0 0 0 0
0 0 0 0 0 0 0 0 0 0 0 0 0 0 0 0 0 0 0 0 0 0 0 0 0 0 0 0 0 0 0 0 0 0 0 0 0 0 0 0 -0 0 0 0 0
0 0 0 0 0 0 0 0 0 0 0 0 0 0 0 0 0 0 0 0 0 0 0 0 0 0 0 0 0 0 0 0 0 0 0 0 0 0 -0 -0 -0 0 0 0 0
0 0 0 0 0 0 0 0 0 0 0 0 0 0 0 0 0 0 0 0 0 0 0 0 0 0 0 0 0 0 0 0 0 0 0 0 0 0 -0 -0 0 0 0 0 0
0 0 0 0 0 0 0 0 0 0 0 0 0 0 0 0 0 0 0 0 0 0 0 0 0 0 0 0 0 0 0 0 0 0 0 0 0 -0 -0 0 0 0 0 0 0
0 0 0 0 0 0 0 0 0 0 0 0 0 0 0 0 0 0 0 0 0 0 0 0 0 0 0 0 0 -0 -0 -0 0 -0 0 -0 0 -0 0 0 -0 0 0 0 0
0 0 0 0 0 0 0 0 0 0 0 0 0 0 0 0 0 0 0 0 0 0 0 0 0 0 0 0 0 -0 0 -0 -0 -0 -0 -0 0 -0 0 0 0 0 0 0 0
0 0 0 0 0 0 0 0 0 0 0 0 0 0 0 0 0 0 0 0 0 0 0 0 0 0 0 0 0 0 -0 0 -0 -0 0 0 0 0 0 -0 0 0 0 0 0
Wind_Speed_500mb
11 12 14 15 16 16 18 18 20 24 27 30 31 32 32 29 27 12 15 15 20 25 29 26 20 12 7 3 5 5 1 5 6 8 9 13 15 11 18 20 18 11 8 30 19
11 13 15 17 18 18 19 21 24 27 30 30 30 30 28 27 15 16 15 13 20 28 31 31 27 18 4 3 2 5 5 11 12 7 8 21 16 30 15 26 25 35 28 36 38
13 15 17 18 20 21 22 24 27 29 31 31 29 27 24 21 4 5 12 15 20 27 30 24 18 13 5 3 4 3 9 9 10 19 29 20 39 34 13 13 28 23 42 47 46
12 16 18 20 22 23 24 26 29 30 30 29 28 24 21 13 2 6 12 14 20 27 27 18 16 5 3 3 5 9 19 29 10 23 28 25 33 35 41 52 55 53 45 55 56
20 20 21 22 24 25 26 27 29 28 28 25 25 23 17 9 4 7 9 16 21 28 27 23 15 9 3 6 14 11 12 30 38 42 39 46 48 36 60 75 69 70 66 67 53
23 24 24 25 25 25 26 27 29 27 25 23 22 20 15 4 4 8 15 17 22 27 27 22 14 15 16 12 7 11 28 39 41 52 50 38 50 34 67 70 65 45 47 54 57
24 26 28 28 27 25 24 25 27 27 23 21 18 17 17 1 3 12 18 19 23 27 30 30 22 9 3 9 18 23 24 20 23 36 14 21 25 34 86 62 69 76 76 74 68
28 27 27 29 27 25 24 25 25 24 20 17 13 16 8 6 7 17 20 22 21 21 24 18 15 15 12 14 15 10 8 11 6 6 12 15 34 45 55 44 61 56 60 68 65
30 31 29 26 24 23 21 21 22 18 15 11 12 9 6 3 11 18 22 24 19 14 18 13 7 7 5 5 8 8 15 22 20 21 17 19 35 26 18 41 43 52 55 56 49
27 28 27 24 20 18 19 20 18 16 11 10 10 7 7 7 13 28 21 13 11 14 8 3 2 4 6 4 11 9 13 14 16 7 10 19 38 39 41 40 45 46 48 49 40
26 25 24 21 16 14 15 15 11 8 13 14 10 11 20 14 29 8 11 11 9 3 1 5 6 16 20 18 25 27 32 43 41 31 30 30 40 44 28 30 41 49 59 68 63
25 25 24 18 14 10 10 7 9 16 20 18 27 31 25 20 10 12 9 4 2 5 2 4 20 20 12 13 25 29 40 46 42 36 33 31 51 45 33 35 54 49 53 67 58
26 23 22 17 13 10 7 8 12 15 9 10 10 11 7 8 9 6 10 5 5 7 7 11 15 8 13 22 26 28 29 41 46 39 32 36 51 40 32 56 60 61 68 70 65
28 24 20 12 9 9 6 8 11 11 8 12 5 3 6 5 8 10 10 4 3 8 7 14 6 8 13 24 17 25 14 32 40 26 13 12 26 15 14 26 32 56 60 77 69
26 23 20 14 6 5 1 6 5 8 9 7 6 5 6 8 15 4 13 8 9 8 2 13 11 10 19 16 7 21 19 31 34 32 24 22 11 13 5 16 29 32 59 68 74
30 22 20 15 16 8 3 1 4 11 12 7 3 3 4 8 6 3 5 12 9 7 10 24 11 8 9 8 18 25 26 39 24 7 7 8 18 18 8 17 20 15 54 66 68
32 26 20 16 10 12 6 4 9 8 4 6 8 6 6 6 6 10 7 6 6 7 5 11 6 7 10 14 5 14 13 9 8 5 11 6 12 31 27 25 15 21 44 65 65
33 30 25 23 18 16 14 8 4 8 11 2 5 3 8 6 9 5 3 7 9 6 6 8 17 9 8 13 7 10 7 6 12 7 24 6 11 11 6 26 35 44 45 54 64
35 33 31 24 28 24 9 5 15 13 7 9 3 2 6 4 8 4 10 8 9 17 10 5 12 11 12 11 11 6 6 8 12 10 7 6 14 18 10 18 16 26 39 52 69
37 26 28 30 33 30 5 12 10 10 6 6 11 9 7 4 2 3 5 8 8 20 9 5 15 11 11 4 17 11 5 7 5 10 10 10 8 8 36 36 18 3 20 42 61
35 11 16 38 36 23 9 15 11 20 16 11 10 7 13 5 9 7 10 8 8 4 16 2 7 15 9 8 5 0 3 6 8 6 8 12 7 8 20 28 23 8 9 33 60
34 9 35 51 15 12 11 12 8 10 21 8 7 14 13 12 7 8 12 10 8 7 6 9 5 11 21 16 11 4 6 7 6 10 9 8 9 5 4 23 17 15 12 27 41
33 19 49 60 15 18 10 10 13 9 10 13 12 13 7 11 5 12 8 9 7 9 7 6 4 11 17 8 4 5 6 7 6 7 13 9 11 2 25 30 23 4 18 37 44
32 12 20 52 25 13 9 11 10 20 10 13 9 10 7 9 13 9 6 6 3 11 10 7 7 13 13 21 9 19 18 13 11 6 11 22 25 43 21 25 16 8 15 32 42
42 16 33 17 31 31 11 6 11 15 16 25 7 16 14 10 6 11 8 8 9 6 6 8 9 11 21 30 25 30 32 30 14 21 14 33 27 42 20 14 8 6 20 38 50
29 16 34 10 44 44 31 13 16 9 16 12 11 14 15 14 18 13 8 5 12 2 6 1 8 6 18 16 9 24 27 24 23 17 30 26 23 3 14 13 8 9 20 30 37
41 43 36 24 22 27 31 37 16 12 18 20 28 10 11 29 41 43 28 18 13 6 3 2 1 7 11 12 20 6 8 10 11 11 7 10 9 13 7 5 5 8 16 24 35
Wind_Direction_500mb
336 342 344 345 348 348 347 339 332 329 330 331 337 343 346 352 354 29 64 51 13 356 351 352 357 360 11 72 128 133 9 238 255 181 260 334 4 321 316 285 319 306 28 338 306
326 331 337 340 337 338 333 329 325 322 321 326 337 343 344 349 13 80 62 21 354 352 349 357 5 9 42 32 188 173 191 223 210 215 272 314 321 313 304 300 293 298 269 325 350
321 328 326 327 329 329 329 325 321 318 320 328 336 341 344 347 86 84 9 1 358 357 360 358 2 7 24 343 244 229 217 219 243 269 296 301 300 304 288 272 274 268 290 295 312
308 310 312 319 320 321 323 321 317 315 319 324 330 340 344 2 47 356 357 355 359 359 1 10 1 31 8 266 268 283 246 252 269 270 283 283 292 285 275 267 277 285 284 286 297
304 303 305 311 314 319 318 320 320 321 319 321 327 339 356 354 48 12 356 354 347 352 359 8 15 358 326 301 306 240 260 268 274 284 287 286 273 263 276 276 280 282 277 274 274
295 297 300 306 311 314 318 319 319 317 319 320 327 335 345 357 44 10 354 341 335 339 339 340 332 307 289 256 234 289 290 285 290 283 277 267 273 268 270 268 273 267 271 277 275
294 297 300 302 307 312 315 318 318 316 318 316 321 328 322 114 349 350 336 335 330 331 328 324 315 280 311 282 267 284 287 285 266 263 258 258 266 242 256 261 262 264 265 266 270
291 294 296 301 307 310 312 317 317 314 312 312 311 321 289 255 308 334 329 329 323 325 324 325 317 262 249 291 304 277 261 287 200 133 241 178 267 266 267 250 252 261 257 254 261
298 299 296 295 301 306 310 315 317 317 312 303 305 312 297 247 311 323 327 316 311 321 327 334 340 266 264 268 289 245 274 270 295 227 255 188 263 287 308 248 259 265 258 258 269
302 306 303 295 298 305 311 321 321 307 294 296 273 303 254 294 310 318 311 301 304 318 347 40 306 294 257 221 269 273 270 262 262 301 250 259 261 268 287 293 279 275 275 269 264
307 309 305 296 291 301 313 333 334 290 278 254 273 266 291 298 305 291 297 298 284 315 356 204 245 257 262 227 255 276 280 280 272 267 282 265 267 271 272 267 267 265 267 269 271
299 307 308 292 283 290 324 7 341 315 307 269 256 261 276 288 286 288 252 228 225 278 263 320 263 255 252 246 253 258 270 271 279 272 256 264 264 270 256 250 242 244 255 263 266
292 302 305 287 278 284 311 342 334 329 292 281 239 259 259 260 266 250 202 194 206 281 237 213 256 265 282 275 264 262 268 280 278 288 266 273 273 264 253 239 241 236 238 251 254
288 299 299 273 266 254 310 327 335 340 49 280 237 251 227 236 263 243 222 221 210 258 258 270 268 240 274 286 283 298 279 265 273 288 292 164 292 250 223 229 223 234 226 236 239
278 289 290 232 231 215 288 322 343 357 3 266 207 209 233 225 308 230 218 197 231 233 136 266 259 259 284 267 163 254 286 271 270 266 288 238 258 284 183 233 233 222 220 228 233
273 278 284 252 236 235 227 55 334 44 261 296 197 225 261 208 254 231 176 218 263 267 226 256 257 255 236 303 234 266 284 285 271 265 253 244 199 280 231 241 247 222 222 219 217
266 267 265 230 220 204 182 106 29 138 10 244 233 183 224 249 265 186 180 199 217 328 290 294 240 255 199 283 269 232 290 307 338 1 233 171 210 253 284 293 235 234 216 210 199
261 261 255 230 196 186 165 62 124 228 208 329 142 169 235 177 248 225 263 280 235 190 309 319 325 210 176 212 256 244 197 297 298 290 296 172 239 250 280 284 276 253 223 207 182
250 259 252 222 189 177 185 97 214 209 177 169 119 188 281 255 210 308 211 227 232 178 180 289 258 270 196 205 153 18 228 215 273 258 276 258 295 312 296 330 329 234 205 188 177
239 252 244 197 183 173 139 244 240 204 177 124 201 186 235 243 222 232 242 209 245 191 194 245 286 259 295 202 228 195 266 307 285 307 282 282 291 292 329 332 328 333 179 181 174
219 219 205 180 174 177 211 227 266 241 195 170 202 214 225 245 197 249 255 272 230 161 177 169 203 287 321 214 242 248 300 260 273 244 306 315 292 264 324 318 313 317 216 177 163
191 192 178 171 166 207 212 205 233 240 206 223 174 204 205 183 236 247 235 226 206 165 211 219 213 279 262 290 255 243 246 144 286 307 262 252 273 171 320 322 323 331 184 175 165
175 177 176 181 201 212 243 267 230 196 199 182 212 204 177 200 224 212 244 264 229 181 211 178 251 302 326 3 25 296 240 236 207 243 265 285 284 171 14 312 321 309 157 174 171
169 161 181 198 227 154 200 242 232 217 210 188 194 165 152 228 223 262 253 289 234 226 243 177 218 204 256 265 294 294 276 268 249 256 312 276 292 310 353 310 318 66 170 157 167
179 195 183 195 211 206 177 267 196 204 212 198 215 204 174 222 224 227 240 269 267 265 182 167 247 222 251 262 273 269 271 283 223 235 241 276 314 310 313 307 310 96 148 159 163
176 165 172 178 186 202 202 226 206 202 161 223 213 203 187 202 201 198 202 187 242 297 194 214 271 332 287 266 232 283 279 260 263 251 257 268 276 236 311 10 34 111 145 143 146
207 187 163 175 170 178 208 216 215 193 221 204 205 163 190 233 242 257 264 255 247 216 208 254 302 347 266 321 307 302 276 259 278 254 265 291 279 343 4 73 341 133 129 137 162
Wind_Speed_850mb
11 12 14 15 16 16 18 18 20 24 27 30 31 32 32 29 27 12 15 15 20 25 29 26 20 12 7 3 5 5 1 5 6 8 9 13 15 11 18 20 18 11 8 30 19
11 13 15 17 18 18 19 21 24 27 30 30 30 30 28 27 15 16 15 13 20 28 31 31 27 18 4 3 2 5 5 11 12 7 8 21 16 30 15 26 25 35 28 36 38
13 15 17 18 20 21 22 24 27 29 31 31 29 27 24 21 4 5 12 15 20 27 30 24 18 13 5 3 4 3 9 9 10 19 29 20 39 34 13 13 28 23 42 47 46
12 16 18 20 22 23 24 26 29 30 30 29 28 24 21 13 2 6 12 14 20 27 27 18 16 5 3 3 5 9 19 29 10 23 28 25 33 35 41 52 55 53 45 55 56
20 20 21 22 24 25 26 27 29 28 28 25 25 23 17 9 4 7 9 16 21 28 27 23 15 9 3 6 14 11 12 30 38 42 39 46 48 36 60 75 69 70 66 67 53
23 24 24 25 25 25 26 27 29 27 25 23 22 20 15 4 4 8 15 17 22 27 27 22 14 15 16 12 7 11 28 39 41 52 50 38 50 34 67 70 65 45 47 54 57
24 26 28 28 27 25 24 25 27 27 23 21 18 17 17 1 3 12 18 19 23 27 30 30 22 9 3 9 18 23 24 20 23 36 14 21 25 34 86 62 69 76 76 74 68
28 27 27 29 27 25 24 25 25 24 20 17 13 16 8 6 7 17 20 22 21 21 24 18 15 15 12 14 15 10 8 11 6 6 12 15 34 45 55 44 61 56 60 68 65
30 31 29 26 24 23 21 21 22 18 15 11 12 9 6 3 11 18 22 24 19 14 18 13 7 7 5 5 8 8 15 22 20 21 17 19 35 26 18 41 43 52 55 56 49
27 28 27 24 20 18 19 20 18 16 11 10 10 7 7 7 13 28 21 13 11 14 8 3 2 4 6 4 11 9 13 14 16 7 10 19 38 39 41 40 45 46 48 49 40
26 25 24 21 16 14 15 15 11 8 13 14 10 11 20 14 29 8 11 11 9 3 1 5 6 16 20 18 25 27 32 43 41 31 30 30 40 44 28 30 41 49 59 68 63
25 25 24 18 14 10 10 7 9 16 20 18 27 31 25 20 10 12 9 4 2 5 2 4 20 20 12 13 25 29 40 46 42 36 33 31 51 45 33 35 54 49 53 67 58
26 23 22 17 13 10 7 8 12 15 9 10 10 11 7 8 9 6 10 5 5 7 7 11 15 8 13 22 26 28 29 41 46 39 32 36 51 40 32 56 60 61 68 70 65
28 24 20 12 9 9 6 8 11 11 8 12 5 3 6 5 8 10 10 4 3 8 7 14 6 8 13 24 17 25 14 32 40 26 13 12 26 15 14 26 32 56 60 77 69
26 23 20 14 6 5 1 6 5 8 9 7 6 5 6 8 15 4 13 8 9 8 2 13 11 10 19 16 7 21 19 31 34 32 24 22 11 13 5 16 29 32 59 68 74
30 22 20 15 16 8 3 1 4 11 12 7 3 3 4 8 6 3 5 12 9 7 10 24 11 8 9 8 18 25 26 39 24 7 7 8 18 18 8 17 20 15 54 66 68
32 26 20 16 10 12 6 4 9 8 4 6 8 6 6 6 6 10 7 6 6 7 5 11 6 7 10 14 5 14 13 9 8 5 11 6 12 31 27 25 15 21 44 65 65
33 30 25 23 18 16 14 8 4 8 11 2 5 3 8 6 9 5 3 7 9 6 6 8 17 9 8 13 7 10 7 6 12 7 24 6 11 11 6 26 35 44 45 54 64
35 33 31 24 28 24 9 5 15 13 7 9 3 2 6 4 8 4 10 8 9 17 10 5 12 11 12 11 11 6 6 8 12 10 7 6 14 18 10 18 16 26 39 52 69
37 26 28 30 33 30 5 12 10 10 6 6 11 9 7 4 2 3 5 8 8 20 9 5 15 11 11 4 17 11 5 7 5 10 10 10 8 8 36 36 18 3 20 42 61
35 11 16 38 36 23 9 15 11 20 16 11 10 7 13 5 9 7 10 8 8 4 16 2 7 15 9 8 5 0 3 6 8 6 8 12 7 8 20 28 23 8 9 33 60
34 9 35 51 15 12 11 12 8 10 21 8 7 14 13 12 7 8 12 10 8 7 6 9 5 11 21 16 11 4 6 7 6 10 9 8 9 5 4 23 17 15 12 27 41
33 19 49 60 15 18 10 10 13 9 10 13 12 13 7 11 5 12 8 9 7 9 7 6 4 11 17 8 4 5 6 7 6 7 13 9 11 2 25 30 23 4 18 37 44
32 12 20 52 25 13 9 11 10 20 10 13 9 10 7 9 13 9 6 6 3 11 10 7 7 13 13 21 9 19 18 13 11 6 11 22 25 43 21 25 16 8 15 32 42
42 16 33 17 31 31 11 6 11 15 16 25 7 16 14 10 6 11 8 8 9 6 6 8 9 11 21 30 25 30 32 30 14 21 14 33 27 42 20 14 8 6 20 38 50
29 16 34 10 44 44 31 13 16 9 16 12 11 14 15 14 18 13 8 5 12 2 6 1 8 6 18 16 9 24 27 24 23 17 30 26 23 3 14 13 8 9 20 30 37
41 43 36 24 22 27 31 37 16 12 18 20 28 10 11 29 41 43 28 18 13 6 3 2 1 7 11 12 20 6 8 10 11 11 7 10 9 13 7 5 5 8 16 24 35
Wind_Direction_850mb
336 342 344 345 348 348 347 339 332 329 330 331 337 343 346 352 354 29 64 51 13 356 351 352 357 360 11 72 128 133 9 238 255 181 260 334 4 321 316 285 319 306 28 338 306
326 331 337 340 337 338 333 329 325 322 321 326 337 343 344 349 13 80 62 21 354 352 349 357 5 9 42 32 188 173 191 223 210 215 272 314 321 313 304 300 293 298 269 325 350
321 328 326 327 329 329 329 325 321 318 320 328 336 341 344 347 86 84 9 1 358 357 360 358 2 7 24 343 244 229 217 219 243 269 296 301 300 304 288 272 274 268 290 295 312
308 310 312 319 320 321 323 321 317 315 319 324 330 340 344 2 47 356 357 355 359 359 1 10 1 31 8 266 268 283 246 252 269 270 283 283 292 285 275 267 277 285 284 286 297
304 303 305 311 314 319 318 320 320 321 319 321 327 339 356 354 48 12 356 354 347 352 359 8 15 358 326 301 306 240 260 268 274 284 287 286 273 263 276 276 280 282 277 274 274
295 297 300 306 311 314 318 319 319 317 319 320 327 335 345 357 44 10 354 341 335 339 339 340 332 307 289 256 234 289 290 285 290 283 277 267 273 268 270 268 273 267 271 277 275
294 297 300 302 307 312 315 318 318 316 318 316 321 328 322 114 349 350 336 335 330 331 328 324 315 280 311 282 267 284 287 285 266 263 258 258 266 242 256 261 262 264 265 266 270
291 294 296 301 307 310 312 317 317 314 312 312 311 321 289 255 308 334 329 329 323 325 324 325 317 262 249 291 304 277 261 287 200 133 241 178 267 266 267 250 252 261 257 254 261
298 299 296 295 301 306 310 315 317 317 312 303 305 312 297 247 311 323 327 316 311 321 327 334 340 266 264 268 289 245 274 270 295 227 255 188 263 287 308 248 259 265 258 258 269
302 306 303 295 298 305 311 321 321 307 294 296 273 303 254 294 310 318 311 301 304 318 347 40 306 294 257 221 269 273 270 262 262 301 250 259 261 268 287 293 279 275 275 269 264
307 309 305 296 291 301 313 333 334 290 278 254 273 266 291 298 305 291 297 298 284 315 356 204 245 257 262 227 255 276 280 280 272 267 282 265 267 271 272 267 267 265 267 269 271
299 307 308 292 283 290 324 7 341 315 307 269 256 261 276 288 286 288 252 228 225 278 263 320 263 255 252 246 253 258 270 271 279 272 256 264 264 270 256 250 242 244 255 263 266
292 302 305 287 278 284 311 342 334 329 292 281 239 259 259 260 266 250 202 194 206 281 237 213 256 265 282 275 264 262 268 280 278 288 266 273 273 264 253 239 241 236 238 251 254
288 299 299 273 266 254 310 327 335 340 49 280 237 251 227 236 263 243 222 221 210 258 258 270 268 240 274 286 283 298 279 265 273 288 292 164 292 250 223 229 223 234 226 236 239
278 289 290 232 231 215 288 322 343 357 3 266 207 209 233 225 308 230 218 197 231 233 136 266 259 259 284 267 163 254 286 271 270 266 288 238 258 284 183 233 233 222 220 228 233
273 278 284 252 236 235 227 55 334 44 261 296 197 225 261 208 254 231 176 218 263 267 226 256 257 255 236 303 234 266 284 285 271 265 253 244 199 280 231 241 247 222 222 219 217
266 267 265 230 220 204 182 106 29 138 10 244 233 183 224 249 265 186 180 199 217 328 290 294 240 255 199 283 269 232 290 307 338 1 233 171 210 253 284 293 235 234 216 210 199
261 261 255 230 196 186 165 62 124 228 208 329 142 169 235 177 248 225 263 280 235 190 309 319 325 210 176 212 256 244 197 297 298 290 296 172 239 250 280 284 276 253 223 207 182
250 259 252 222 189 177 185 97 214 209 177 169 119 188 281 255 210 308 211 227 232 178 180 289 258 270 196 205 153 18 228 215 273 258 276 258 295 312 296 330 329 234 205 188 177
239 252 244 197 183 173 139 244 240 204 177 124 201 186 235 243 222 232 242 209 245 191 194 245 286 259 295 202 228 195 266 307 285 307 282 282 291 292 329 332 328 333 179 181 174
219 219 205 180 174 177 211 227 266 241 195 170 202 214 225 245 197 249 255 272 230 161 177 169 203 287 321 214 242 248 300 260 273 244 306 315 292 264 324 318 313 317 216 177 163
191 192 178 171 166 207 212 205 233 240 206 223 174 204 205 183 236 247 235 226 206 165 211 219 213 279 262 290 255 243 246 144 286 307 262 252 273 171 320 322 323 331 184 175 165
175 177 176 181 201 212 243 267 230 196 199 182 212 204 177 200 224 212 244 264 229 181 211 178 251 302 326 3 25 296 240 236 207 243 265 285 284 171 14 312 321 309 157 174 171
169 161 181 198 227 154 200 242 232 217 210 188 194 165 152 228 223 262 253 289 234 226 243 177 218 204 256 265 294 294 276 268 249 256 312 276 292 310 353 310 318 66 170 157 167
179 195 183 195 211 206 177 267 196 204 212 198 215 204 174 222 224 227 240 269 267 265 182 167 247 222 251 262 273 269 271 283 223 235 241 276 314 310 313 307 310 96 148 159 163
176 165 172 178 186 202 202 226 206 202 161 223 213 203 187 202 201 198 202 187 242 297 194 214 271 332 287 266 232 283 279 260 263 251 257 268 276 236 311 10 34 111 145 143 146
207 187 163 175 170 178 208 216 215 193 221 204 205 163 190 233 242 257 264 255 247 216 208 254 302 347 266 321 307 302 276 259 278 254 265 291 279 343 4 73 341 133 129 137 162